| time (UTC) | temp F | wind direction | speed MPH | gust MPH | rain 1hr in | rain 24hr in | rain mn in | humidity % | barometer mb |
| 20260904210028 | 60 | 45 | 0.0 | 2.0 | 0.00 | 0.01 | 0.01 | 67 | 1016.1 |
| 20260904203029 | 63 | 77 | 2.0 | 6.0 | 0.00 | 0.01 | 0.01 | 62 | 1016.1 |
| 20260904201529 | 61 | 56 | 2.0 | 9.0 | 0.00 | 0.01 | 0.01 | 65 | 1016.1 |
| 20260904200028 | 61 | 17 | 2.0 | 7.0 | 0.00 | 0.01 | 0.01 | 66 | 1016.2 |
| 20260904194531 | 60 | 29 | 3.0 | 7.0 | 0.00 | 0.01 | 0.01 | 69 | 1016.3 |
| 20260904193106 | 59 | 47 | 2.0 | 5.0 | 0.00 | 0.01 | 0.01 | 70 | 1016.4 |
| 20260904190030 | 58 | 36 | 2.0 | 5.0 | 0.00 | 0.01 | 0.01 | 73 | 1016.5 |
| 20260904184530 | 58 | 44 | 1.0 | 4.0 | 0.00 | 0.01 | 0.01 | 75 | 1016.5 |
| 20260904183031 | 57 | 47 | 1.0 | 5.0 | 0.00 | 0.01 | 0.01 | 79 | 1016.3 |
| 20260904181604 | 55 | 65 | 0.0 | 3.0 | 0.00 | 0.01 | 0.01 | 82 | 1016.3 |
| 20260904180029 | 54 | 45 | 1.0 | 3.0 | 0.00 | 0.01 | 0.01 | 84 | 1016.2 |
| 20260904174529 | 53 | 39 | 2.0 | 3.0 | 0.00 | 0.01 | 0.01 | 85 | 1016.2 |
| 20260904171527 | 52 | 5 | 2.0 | 4.0 | 0.00 | 0.01 | 0.01 | 88 | 1016.1 |
| 20260904170029 | 52 | 50 | 1.0 | 4.0 | 0.00 | 0.01 | 0.01 | 90 | 1016.0 |
| 20260904164605 | 51 | 67 | 0.0 | 3.0 | 0.00 | 0.01 | 0.01 | 91 | 1015.9 |
| 20260904163032 | 52 | 49 | 2.0 | 4.0 | 0.00 | 0.01 | 0.01 | 92 | 1015.8 |
| 20260904161527 | 51 | 90 | 1.0 | 2.0 | 0.00 | 0.01 | 0.01 | 93 | 1015.8 |
| 20260904160105 | 50 | 270 | 0.0 | 2.0 | 0.00 | 0.01 | 0.01 | 94 | 1015.8 |
| 20260904154529 | 50 | 289 | 1.0 | 3.0 | 0.00 | 0.01 | 0.01 | 95 | 1015.7 |
| 20260904153030 | 49 | 357 | 1.0 | 3.0 | 0.00 | 0.01 | 0.01 | 95 | 1015.6 |
| 20260904151533 | 49 | 23 | 1.0 | 4.0 | 0.01 | 0.01 | 0.01 | 96 | 1015.5 |
| 20260904150105 | 48 | 81 | 1.0 | 3.0 | 0.01 | 0.01 | 0.01 | 96 | 1015.3 |
| 20260904144607 | 48 | 355 | 0.0 | 2.0 | 0.01 | 0.01 | 0.01 | 96 | 1015.2 |
| 20260904143034 | 48 | 360 | 0.0 | 0.0 | 0.01 | 0.01 | 0.00 | 96 | 1015.1 |
| 20260904140104 | 47 | 360 | 0.0 | 1.0 | 0.00 | 0.00 | 0.00 | 95 | 1014.7 |
| 20260904130029 | 47 | 270 | 1.0 | 2.0 | 0.00 | 0.00 | 0.00 | 94 | 1014.2 |
| 20260904124531 | 48 | 322 | 1.0 | 3.0 | 0.00 | 0.00 | 0.00 | 93 | 1014.2 |
| 20260904123143 | 48 | 48 | 1.0 | 4.0 | 0.00 | 0.00 | 0.00 | 93 | 1014.2 |
| 20260904121532 | 48 | 271 | 3.0 | 6.0 | 0.00 | 0.00 | 0.00 | 94 | 1014.0 |
| 20260904120033 | 47 | 283 | 4.0 | 5.0 | 0.00 | 0.00 | 0.00 | 94 | 1013.9 |
| 20260904114530 | 47 | 282 | 4.0 | 5.0 | 0.00 | 0.00 | 0.00 | 94 | 1013.8 |
| 20260904113030 | 48 | 292 | 1.0 | 3.0 | 0.00 | 0.00 | 0.00 | 93 | 1013.7 |
| 20260904111531 | 48 | 299 | 3.0 | 4.0 | 0.00 | 0.00 | 0.00 | 93 | 1013.7 |
| 20260904110028 | 48 | 315 | 2.0 | 3.0 | 0.00 | 0.00 | 0.00 | 93 | 1013.6 |
| 20260904104607 | 48 | 315 | 0.0 | 2.0 | 0.00 | 0.00 | 0.00 | 93 | 1013.5 |
| 20260904103031 | 48 | 312 | 0.0 | 2.0 | 0.00 | 0.00 | 0.00 | 92 | 1013.4 |
| 20260904101531 | 47 | 292 | 1.0 | 3.0 | 0.00 | 0.00 | 0.00 | 92 | 1013.2 |
| 20260904100031 | 47 | 292 | 3.0 | 5.0 | 0.00 | 0.00 | 0.00 | 92 | 1013.1 |
| 20260904094530 | 47 | 292 | 2.0 | 4.0 | 0.00 | 0.00 | 0.00 | 92 | 1013.1 |
| 20260904093109 | 47 | 295 | 1.0 | 4.0 | 0.00 | 0.00 | 0.00 | 92 | 1013.0 |
| 20260904090030 | 48 | 269 | 3.0 | 5.0 | 0.00 | 0.00 | 0.00 | 90 | 1013.0 |
| 20260904084556 | 48 | 247 | 4.0 | 5.0 | 0.00 | 0.00 | 0.00 | 89 | 1013.0 |
| 20260904083031 | 49 | 254 | 3.0 | 5.0 | 0.00 | 0.00 | 0.00 | 88 | 1012.9 |
| 20260904080032 | 48 | 269 | 4.0 | 5.0 | 0.00 | 0.00 | 0.00 | 89 | 1013.0 |
| 20260904073030 | 48 | 282 | 4.0 | 7.0 | 0.00 | 0.00 | 0.00 | 90 | 1012.9 |
| 20260904071530 | 48 | 272 | 5.0 | 7.0 | 0.00 | 0.00 | 0.00 | 91 | 1012.9 |
| 20260904064529 | 48 | 286 | 5.0 | 7.0 | 0.00 | 0.01 | 0.01 | 90 | 1012.7 |
| 20260904063108 | 49 | 277 | 5.0 | 7.0 | 0.00 | 0.01 | 0.01 | 90 | 1012.9 |
| 20260904061530 | 48 | 273 | 6.0 | 7.0 | 0.00 | 0.01 | 0.01 | 92 | 1012.8 |
| 20260904060030 | 48 | 277 | 5.0 | 7.0 | 0.00 | 0.01 | 0.01 | 93 | 1012.8 |
| 20260904054531 | 48 | 281 | 3.0 | 5.0 | 0.00 | 0.01 | 0.01 | 93 | 1012.7 |
| 20260904053032 | 49 | 290 | 2.0 | 4.0 | 0.00 | 0.01 | 0.01 | 92 | 1012.7 |
| 20260904051604 | 49 | 278 | 3.0 | 5.0 | 0.00 | 0.01 | 0.01 | 92 | 1012.8 |
| 20260904050030 | 49 | 286 | 4.0 | 5.0 | 0.00 | 0.01 | 0.01 | 92 | 1012.9 |
| 20260904044529 | 49 | 271 | 4.0 | 6.0 | 0.00 | 0.01 | 0.01 | 92 | 1012.9 |
| 20260904043032 | 49 | 284 | 3.0 | 5.0 | 0.00 | 0.01 | 0.01 | 92 | 1012.9 |
| 20260904041532 | 50 | 292 | 3.0 | 5.0 | 0.00 | 0.01 | 0.01 | 93 | 1012.9 |
| 20260904040107 | 50 | 292 | 2.0 | 4.0 | 0.00 | 0.01 | 0.01 | 93 | 1013.0 |
| 20260904034528 | 50 | 272 | 3.0 | 5.0 | 0.00 | 0.01 | 0.01 | 92 | 1012.9 |
| 20260904033107 | 49 | 273 | 3.0 | 5.0 | 0.00 | 0.01 | 0.01 | 90 | 1012.7 |
| 20260904031530 | 50 | 275 | 4.0 | 5.0 | 0.00 | 0.01 | 0.01 | 89 | 1012.6 |
| 20260904024606 | 51 | 279 | 5.0 | 9.0 | 0.00 | 0.01 | 0.01 | 85 | 1012.4 |
| 20260904023030 | 52 | 279 | 5.0 | 14.0 | 0.00 | 0.01 | 0.01 | 84 | 1012.3 |
| 20260904020146 | 53 | 301 | 7.0 | 15.0 | 0.00 | 0.03 | 0.01 | 83 | 1012.1 |
| 20260904013102 | 54 | 288 | 5.0 | 12.0 | 0.00 | 0.11 | 0.01 | 84 | 1012.2 |
| 20260904011531 | 55 | 261 | 4.0 | 7.0 | 0.00 | 0.11 | 0.01 | 83 | 1012.2 |
| 20260904010034 | 55 | 286 | 4.0 | 7.0 | 0.00 | 0.11 | 0.01 | 81 | 1012.2 |
| 20260904004531 | 57 | 311 | 4.0 | 11.0 | 0.00 | 0.11 | 0.01 | 77 | 1012.2 |
| 20260904003028 | 58 | 331 | 3.0 | 8.0 | 0.00 | 0.12 | 0.01 | 79 | 1012.1 |
| 20260904001529 | 57 | 330 | 4.0 | 8.0 | 0.00 | 0.14 | 0.01 | 78 | 1012.1 |
| 20260904000146 | 57 | 311 | 4.0 | 10.0 | 0.00 | 0.16 | 0.01 | 81 | 1012.1 |
| 20260903233031 | 54 | 315 | 6.0 | 12.0 | 0.00 | 0.19 | 0.01 | 84 | 1012.3 |
| 20260903230032 | 55 | 299 | 9.0 | 19.0 | 0.00 | 0.20 | 0.01 | 81 | 1012.3 |
| 20260903224604 | 56 | 300 | 10.0 | 18.0 | 0.00 | 0.21 | 0.01 | 79 | 1012.4 |
| 20260903223030 | 56 | 301 | 9.0 | 15.0 | 0.00 | 0.21 | 0.01 | 78 | 1012.2 |
| 20260903221530 | 57 | 304 | 8.0 | 17.0 | 0.00 | 0.22 | 0.01 | 76 | 1012.3 |
| 20260903220031 | 57 | 304 | 8.0 | 20.0 | 0.00 | 0.23 | 0.01 | 76 | 1012.4 |
| 20260903214606 | 58 | 322 | 9.0 | 19.0 | 0.00 | 0.24 | 0.01 | 71 | 1012.4 |
| 20260903213033 | 63 | 338 | 8.0 | 18.0 | 0.00 | 0.26 | 0.01 | 65 | 1012.4 |